Regional Weather Roundup
Issued by NWS Bismarck, ND

Home | Current Version | Previous Version | Text Only | Print | Product List | Glossary On
Versions: 1 2 3 4 5 6 7 8 9 10 11 12 13 14 15 16 17 18 19 20 21 22 23 24 25 26 27 28 29 30 31 32 33 34 35 36 37 38 39 40 41 42 43 44 45 46 47 48 49 50
000
ASUS43 KBIS 281002
RWRBIS

NWR BROADCAST TEXT
NATIONAL WEATHER SERVICE BISMARCK ND
500 AM CDT TUE JUL 28 2015

NOTE: "FAIR" INDICATES FEW OR NO CLOUDS BELOW 12,000 FEET WITH NO
SIGNIFICANT WEATHER AND/OR OBSTRUCTIONS TO VISIBILITY.


CITY           SKY/WX    TMP DP  RH WIND       PRES   REMARKS
WILLISTON      CLOUDY    60  56  86 SW20G29   29.58S
MINOT          MOCLDY    67  58  72 SW15G22   29.56R
MINOT AFB      CLOUDY    67  62  83 SW6G16    29.55R
BISMARCK       MOCLDY    64  58  80 W12       29.67R
DICKINSON      CLOUDY    58  53  84 W25G33    29.70R
GARRISON         N/A     62  58  86 W14G24    29.60R
HETTINGER ARPT CLOUDY    56  50  80 W30G44    29.79R
JAMESTOWN      CLOUDY    69  64  84 SW12      29.62R
HAZEN          FAIR      59  55  88 SW13G23   29.64R
OAKES            N/A     66  66 100 W9        29.62R
STANLEY        CLOUDY    61  61 100 W26G38    29.58R
$$

CITY           SKY/WX    TMP DP  RH WIND       PRES   REMARKS
GRAND FORKS    CLOUDY    74  71  91 SE17      29.58F
GRAND FORKS AF NOT AVBL
DEVILS LAKE    CLOUDY    73  64  73 SW10      29.54F
FARGO          RAIN      73  70  90 SE15G21   29.65F FOG
CAVALIER       CLOUDY    73  72  94 S9G17     29.56F
GRAFTON        PTSUNNY   73  73 100 SE17      29.56F
GWINNER          N/A     68  68 100 E12G17    29.57F
LANGDON        CLOUDY    73  72  94 S14G21    29.57F
$$

CITY           SKY/WX    TMP DP  RH WIND       PRES   REMARKS
ABERDEEN       CLOUDY    69  65  86 SW12      29.67R
MOBRIDGE       CLOUDY    66  62  87 W14       29.71R
RAPID CITY     CLEAR     55  46  71 NW9       29.90R
GLASGOW        LGT RAIN  55  53  93 W25G37    29.63F
SIDNEY         CLOUDY    59  52  77 SW23      29.63F
WOLF POINT     LGT RAIN  58  54  86 W20G33    29.62S
GLENDIVE       CLOUDY    55  52  88 W20G33    29.74R
MILES CITY     PTCLDY    56  48  74 W21G30    29.83S
BAKER          CLOUDY    55  49  80 W21G26    29.83R
$$

CITY           SKY/WX    TMP DP  RH WIND       PRES   REMARKS
BILLINGS       MOCLDY    54  39  57 W29G39    29.99S
GREAT FALLS    LGT RAIN  50  47  89 SW10      30.03R
$$



USA.gov is the U.S. government's official web portal to all federal, state and local government web resources and services.